カタログに戻る

STARLINK-36137

運用中通信VLEO
NORAD 67033·PAYLOAD·🇺🇸 United States

打ち上げ Dec 11, 2025 から Cape Canaveral Space Force Station

Loading…

次のパス (今後24時間)

TLE

最新Source: CelesTrak SupGP

元期: Sep 15, 2026, 04:10 UTC

1 67033C 25294D   26258.17409722 -.00013947  00000+0 -50500-3 0  2582
2 67033  43.0015  47.6378 0001605 272.1719  37.8485 15.27595504    19

AllMySatでSTARLINK-36137をリアルタイム追跡

Download on the App Store